METEOR 1-17 DEB, 57545

Orbit data source: Space-Track

METEOR 1-17 DEB, 57545 is space debris in LEO originally from a Commonwealth of Independent States-origin launch on Wed, 24 Apr 1974 UTC launched from the Plesetsk Missile And Space Complex (PKMTR). Debris objects in space refer to the collection of defunct objects orbiting the Earth. Examples of debris include non-operational satellites, rocket bodies, and fragments generated from explosions, collisions, or faulty payload assembly.

Loading next visibility...
Identifier
57545, 1974-025L
Orbit
LEO
Country
Flag of CISCIS
Related business
Manufacturer
VNIIEM
Mission
Spacecraft
Bus & Motor
Unknown
Mass
Unknown
Launch date (UTC)
1974-04-24 (52 years ago)
Launch vehicle
Unknown
Launch site
Plesetsk Missile And Space Complex (PKMTR)
Object type
Payload
Rocket body
Debris
Shape & HBR
Unknown shape, 0.1 m
Radar Cross Section
Small (<0.1 m²)

Expand to show TLE details & history
Last TLE update: 2 weeks ago

TLE from 2 weeks ago
0 METEOR 1-17 DEB
1 57545U 74025L   26161.04324035  .00004232  00000-0  18551-2 0  9994
2 57545  81.2120 291.2129 0012028 293.0442  66.9468 14.23490658    62
Epoch: 2026-06-10T01:02Z
TLE epoch observation values (Epoch: 2026-06-10T01:02:15.966Z)
Latitude
0.00005°
Longitude
17.23932°
Altitude
813.109 km
Speed
7.448 km/s
True Right ascension
19h 24m 51s
True Declination
0° 00' 00"
Sunlit
Object was in full shadow at epoch
Visualization orbit readout
Latitude
Unknown
Longitude
Unknown
Altitude
Unknown
Speed
Unknown
Apparent Right ascension
Unknown
Apparent Declination
Unknown
Sunlit
N/A
Visualization observer readout
Local Sidereal Time
21:36:34
Azimuth
Unknown
Elevation
Unknown
Doppler factor
Unknown
Orbital elements
Apogee altitude
819.376 km
Perigee altitude
802.083 km
Semi-major axis
7,188.866 km
Eccentricity
0.0012
Inclination
81.212°
RAAN
291.2129°
Arg. of periapsis
293.0442°
True anomaly
67.0737°
Mean anomaly
66.9468°
Eccentric anomaly
67.01024°
Mean motion
3.56084 °/min
Orbital period
101.1 mins
BSTAR
0.0018551
Loading maneuver chart data...
Computing Atmospheric mass density...
Loading historical data...
Loading historical data...
Loading historical data...
Loading historical data...
Loading historical data...
Loading historical data...
Loading historical data...

Documentation

Showing up to 5 results
|